Latest Weather Observations for Bickley

IDW60801

Issued at 8:35 pm WST Thursday 27 November 2014 (issued every 30 minutes, with the page automatically refreshed every 10 minutes)

About weather observations | Map of weather stations | Latest weather observations for WA | Other Formats
Station Details ID: 009240 Name: BICKLEY Lat: -32.01 Lon: 116.14 Height: 384.0 m
Data from the previous 72 hours. | See also: Recent months at Bickley
Date/Time
WST
Temp
°C
App
Temp
°C
Dew
Point
Rel
Hum
%
Delta-T
°C
Wind Press
QNH
hPa
Press
MSL
hPa
Rain
since 9 am
mm
Dir
 
Spd
km/h
Gust
km/h
Spd
kts
Gust
kts
27/08:30pm 17.8 - 16.5 92 0.8 - - - - - - - 1.0
27/08:00pm 18.2 - 16.9 92 0.8 - - - - - - - 1.0
27/07:30pm 18.7 - 17.2 91 0.9 - - - - - - - 1.0
27/07:00pm 19.5 - 17.1 86 1.5 - - - - - - - 1.0
27/06:30pm 20.4 - 17.2 82 2.0 - - - - - - - 1.0
27/06:00pm 21.6 - 17.2 76 2.7 - - - - - - - 1.0
27/05:30pm 21.7 - 17.1 75 2.9 - - - - - - - 1.0
27/05:00pm 21.4 - 16.6 74 3.0 - - - - - - - 1.0
27/04:30pm 21.4 - 16.8 75 2.8 - - - - - - - 1.0
27/04:00pm 21.4 - 18.8 85 1.7 - - - - - - - 1.0
27/03:30pm 20.1 - 19.1 94 0.6 - - - - - - - 1.0
27/03:00pm 19.4 - 18.4 94 0.6 - - - - - - - 1.0
27/02:30pm 20.9 - 18.1 84 1.8 - - - - - - - 0.6
27/02:00pm 23.0 - 16.5 67 4.0 - - - - - - - 0.0
27/01:30pm 23.2 - 16.3 65 4.3 - - - - - - - 0.0
27/01:00pm 23.3 - 16.4 65 4.3 - - - - - - - 0.0
27/12:30pm 22.0 - 16.7 72 3.3 - - - - - - - 0.0
27/12:00pm 21.7 - 16.2 71 3.4 - - - - - - - 0.0
27/11:30am 21.9 - 14.8 64 4.3 - - - - - - - 0.0
27/11:00am 22.3 - 16.3 69 3.7 - - - - - - - 0.0
27/10:30am 20.8 - 16.4 76 2.7 - - - - - - - 0.0
27/10:00am 22.1 - 15.9 68 3.8 - - - - - - - 0.0
27/09:30am 22.6 - 16.4 68 3.8 - - - - - - - 0.0
27/09:00am 21.0 - 16.0 73 3.0 - - - - - - - 19.4
27/08:30am 19.9 - 16.7 82 2.0 - - - - - - - 19.4
27/08:00am 19.9 - 16.9 83 1.8 - - - - - - - 19.2
27/07:30am 19.6 - 17.0 85 1.6 - - - - - - - 19.2
27/07:00am 17.7 - 16.7 94 0.6 - - - - - - - 19.2
27/06:30am 17.1 - 15.4 90 1.0 - - - - - - - 19.2
27/06:00am 17.9 - 15.2 84 1.6 - - - - - - - 17.8
27/05:30am 17.8 - 16.5 92 0.8 - - - - - - - 17.2
27/05:00am 17.1 - 16.6 97 0.3 - - - - - - - 17.2
27/04:30am 17.0 - 16.5 97 0.3 - - - - - - - 17.2
27/04:00am 16.9 - 16.4 97 0.3 - - - - - - - 17.2
27/03:30am 16.7 - 15.9 95 0.5 - - - - - - - 17.0
27/03:00am 16.8 - 15.8 94 0.6 - - - - - - - 17.0
27/02:30am 16.9 - 15.8 93 0.7 - - - - - - - 17.0
27/02:00am 16.9 - 15.6 92 0.8 - - - - - - - 17.0
27/01:30am 16.9 - 15.6 92 0.8 - - - - - - - 17.0
27/01:00am 16.7 - 15.7 94 0.6 - - - - - - - 16.8
27/12:30am 16.8 - 15.8 94 0.6 - - - - - - - 16.8
27/12:00am 16.8 - 15.8 94 0.6 - - - - - - - 16.8
 
Date/Time
WST
Temp
°C
App
Temp
°C
Dew
Point
Rel
Hum
%
Delta-T
°C
Wind Press
QNH
hPa
Press
MSL
hPa
Rain
since 9 am
mm
Dir
 
Spd
km/h
Gust
km/h
Spd
kts
Gust
kts
26/11:30pm 17.1 - 15.8 92 0.8 - - - - - - - 16.8
26/11:00pm 17.3 - 15.6 90 1.0 - - - - - - - 16.8
26/10:30pm 17.5 - 15.3 87 1.3 - - - - - - - 16.8
26/10:00pm 17.4 - 15.4 88 1.2 - - - - - - - 16.8
26/09:30pm 16.7 - 15.7 94 0.6 - - - - - - - 16.8
26/09:00pm 17.1 - 15.4 90 1.0 - - - - - - - 16.8
26/08:30pm 16.6 - 15.8 95 0.5 - - - - - - - 16.4
26/08:00pm 16.5 - 16.3 99 0.1 - - - - - - - 16.0
26/07:30pm 16.6 - 16.4 99 0.1 - - - - - - - 15.2
26/07:00pm 16.6 - 16.4 99 0.1 - - - - - - - 14.4
26/06:30pm 16.8 - 16.6 99 0.1 - - - - - - - 12.6
26/06:00pm 17.0 - 16.7 98 0.2 - - - - - - - 11.2
26/05:30pm 17.5 - 16.4 93 0.7 - - - - - - - 8.8
26/05:00pm 18.0 - 16.2 89 1.1 - - - - - - - 5.4
26/04:30pm 18.9 - 15.6 81 2.0 - - - - - - - 3.6
26/04:00pm 21.1 - 14.3 65 4.0 - - - - - - - 3.0
26/03:30pm 20.2 - 14.8 71 3.2 - - - - - - - 3.0
26/03:00pm 20.0 - 14.4 70 3.3 - - - - - - - 2.4
26/02:30pm 21.3 - 14.2 64 4.2 - - - - - - - 0.8
26/02:00pm 22.3 - 14.2 60 4.8 - - - - - - - 0.2
26/01:30pm 27.3 - 10.1 34 9.8 - - - - - - - 0.0
26/01:00pm 28.7 - 10.8 33 10.4 - - - - - - - 0.0
26/12:30pm 29.1 - 10.3 31 10.8 - - - - - - - 0.0
26/12:00pm 27.8 - 9.6 32 10.3 - - - - - - - 0.0
26/11:30am 26.7 - 12.0 40 8.6 - - - - - - - 0.0
26/11:00am 24.6 - 12.2 46 7.2 - - - - - - - 0.0
26/10:30am 21.9 - 11.6 52 5.9 - - - - - - - 0.0
26/10:00am 21.0 - 12.2 57 5.0 - - - - - - - 0.0
26/09:30am 18.7 - 11.5 63 4.0 - - - - - - - 0.0
26/09:00am 19.3 - 10.0 55 5.1 - - - - - - - 0.0
26/08:30am 19.1 - 11.2 60 4.4 - - - - - - - 0.0
26/08:00am 17.1 - 9.8 62 3.9 - - - - - - - 0.0
26/07:30am 17.0 - 9.7 62 3.9 - - - - - - - 0.0
26/07:00am 16.5 - 9.9 65 3.5 - - - - - - - 0.0
26/06:30am 16.1 - 9.8 66 3.4 - - - - - - - 0.0
26/06:00am 15.7 - 9.6 67 3.2 - - - - - - - 0.0
26/05:30am 15.5 - 9.4 67 3.2 - - - - - - - 0.0
26/05:00am 15.4 - 9.3 67 3.2 - - - - - - - 0.0
26/04:30am 15.5 - 9.2 66 3.3 - - - - - - - 0.0
26/04:00am 15.6 - 9.3 66 3.3 - - - - - - - 0.0
26/03:30am 15.8 - 9.2 65 3.5 - - - - - - - 0.0
26/03:00am 16.2 - 9.4 64 3.6 - - - - - - - 0.0
26/02:30am 16.5 - 9.2 62 3.9 - - - - - - - 0.0
26/02:00am 17.1 - 9.3 60 4.1 - - - - - - - 0.0
26/01:30am 17.6 - 9.2 58 4.5 - - - - - - - 0.0
26/01:00am 18.2 - 9.0 55 4.9 - - - - - - - 0.0
26/12:30am 19.0 - 9.2 53 5.2 - - - - - - - 0.0
26/12:00am 20.3 - 8.9 48 6.1 - - - - - - - 0.0
 
Date/Time
WST
Temp
°C
App
Temp
°C
Dew
Point
Rel
Hum
%
Delta-T
°C
Wind Press
QNH
hPa
Press
MSL
hPa
Rain
since 9 am
mm
Dir
 
Spd
km/h
Gust
km/h
Spd
kts
Gust
kts
25/11:30pm 21.5 - 8.4 43 7.0 - - - - - - - 0.0
25/11:00pm 22.4 - 5.4 33 8.7 - - - - - - - 0.0
25/10:30pm 23.0 - 5.0 31 9.1 - - - - - - - 0.0
25/10:00pm 23.3 - 4.8 30 9.4 - - - - - - - 0.0
25/09:30pm 23.9 - 4.3 28 9.9 - - - - - - - 0.0
25/09:00pm 23.7 - 4.1 28 9.8 - - - - - - - 0.0
25/08:30pm 24.0 - 4.4 28 9.9 - - - - - - - 0.0
25/08:00pm 24.2 - 4.6 28 10.0 - - - - - - - 0.0
25/07:30pm 24.8 - 5.1 28 10.1 - - - - - - - 0.0
25/07:00pm 25.2 - 5.9 29 10.1 - - - - - - - 0.0
25/06:30pm 26.6 - 6.1 27 10.8 - - - - - - - 0.0
25/06:00pm 28.2 - 5.7 24 11.9 - - - - - - - 0.0
25/05:30pm 29.0 - 6.4 24 12.2 - - - - - - - 0.0
25/05:00pm 29.7 - 6.4 23 12.6 - - - - - - - 0.0
25/04:30pm 29.9 - 5.9 22 12.9 - - - - - - - 0.0
25/04:00pm 30.5 - 6.4 22 13.1 - - - - - - - 0.0
25/03:30pm 30.9 - 6.7 22 13.2 - - - - - - - 0.0
25/03:00pm 30.3 - 6.9 23 12.8 - - - - - - - 0.0
25/02:30pm 30.4 - 7.6 24 12.6 - - - - - - - 0.0
25/02:00pm 29.8 - 7.7 25 12.2 - - - - - - - 0.0
25/01:30pm 29.0 - 8.7 28 11.4 - - - - - - - 0.0
25/01:00pm 28.6 - 8.8 29 11.1 - - - - - - - 0.0
25/12:30pm 27.6 - 9.4 32 10.2 - - - - - - - 0.0
25/12:00pm 27.2 - 9.5 33 10.0 - - - - - - - 0.0
25/11:30am 26.2 - 9.5 35 9.3 - - - - - - - 0.0
25/11:00am 25.0 - 9.7 38 8.5 - - - - - - - 0.0
25/10:30am 23.8 - 9.4 40 7.9 - - - - - - - 0.0
25/10:00am 22.5 - 9.6 44 7.1 - - - - - - - 0.0
25/09:30am 21.0 - 9.3 47 6.4 - - - - - - - 0.0
25/09:00am 19.5 - 9.1 51 5.6 - - - - - - - 0.0
25/08:30am 17.5 - 8.4 55 4.8 - - - - - - - 0.0
25/08:00am 16.0 - 8.5 61 3.9 - - - - - - - 0.0
25/07:30am 14.3 - 8.0 66 3.2 - - - - - - - 0.0
25/07:00am 12.7 - 7.4 70 2.6 - - - - - - - 0.0
25/06:30am 11.4 - 6.7 73 2.3 - - - - - - - 0.0
25/06:00am 10.8 - 6.6 75 2.0 - - - - - - - 0.0
25/05:30am 10.8 - 6.6 75 2.0 - - - - - - - 0.0
25/05:00am 10.9 - 6.6 75 2.1 - - - - - - - 0.0
25/04:30am 11.2 - 6.7 74 2.2 - - - - - - - 0.0
25/04:00am 11.6 - 6.7 72 2.4 - - - - - - - 0.0
25/03:30am 12.0 - 6.9 71 2.5 - - - - - - - 0.0
25/03:00am 12.5 - 7.0 69 2.7 - - - - - - - 0.0
25/02:30am 13.2 - 7.0 66 3.1 - - - - - - - 0.0
25/02:00am 13.7 - 7.0 64 3.3 - - - - - - - 0.0
25/01:30am 14.2 - 6.3 59 3.9 - - - - - - - 0.0
25/01:00am 14.9 - 4.9 51 4.8 - - - - - - - 0.0
25/12:30am 15.4 - 3.5 45 5.6 - - - - - - - 0.0
25/12:00am 16.5 - 2.5 39 6.5 - - - - - - - 0.0
 
Date/Time
WST
Temp
°C
App
Temp
°C
Dew
Point
Rel
Hum
%
Delta-T
°C
Wind Press
QNH
hPa
Press
MSL
hPa
Rain
since 9 am
mm
Dir
 
Spd
km/h
Gust
km/h
Spd
kts
Gust
kts
24/11:30pm 16.9 - 2.1 37 6.8 - - - - - - - 0.0
24/11:00pm 17.4 - 2.6 37 6.9 - - - - - - - 0.0
24/10:30pm 16.9 - 5.5 47 5.6 - - - - - - - 0.0
24/10:00pm 16.5 - 8.5 59 4.2 - - - - - - - 0.0
24/09:30pm 16.3 - 9.7 65 3.5 - - - - - - - 0.0
24/09:00pm 16.3 - 9.9 66 3.4 - - - - - - - 0.0

Other Formats:

Comma delimited format used in spreadsheet applications
http://www.bom.gov.au/fwo/IDW60801/IDW60801.95610.axf

JavaScript Object Notation format (JSON) in row-major order
http://www.bom.gov.au/fwo/IDW60801/IDW60801.95610.json